When you browse on this site, cookies collect data to enhance your experience and personalize the content and advertising you see.
Visit our Privacy Policy to learn more. By continuing to use the site, you agree to this use of cookies and data.
  • In Portugal
  • List of Countries
  • For 7 days
  • Water Temperature
  • Satellite Maps
  • Weather Map
  • Weather Widgets
  • user-avatar
    Login

    Hourly Weather Viedma

    Today, 17 January, Thursday

    Time Temperature Precipitation Wind Pressure Humidity
    00:00 +15°C° 0 mm 5 mps 764 mmHg 49%
    01:00 +15°C° 0 mm 4 mps 764 mmHg 50%
    02:00 +14°C° 0 mm 4 mps 764 mmHg 50%
    03:00 +14°C° 0 mm 3 mps 765 mmHg 52%
    04:00 +14°C° 0 mm 3 mps 765 mmHg 54%
    05:00 +13°C° 0 mm 3 mps 765 mmHg 55%
    06:00 +16°C° 0 mm 3 mps 766 mmHg 50%
    07:00 +17°C° 0 mm 4 mps 766 mmHg 44%
    08:00 +18°C° 0 mm 4 mps 766 mmHg 39%
    09:00 +19°C° 0 mm 4 mps 767 mmHg 35%
    10:00 +20°C° 0 mm 4 mps 767 mmHg 32%
    11:00 +21°C° 0 mm 3 mps 767 mmHg 29%
    12:00 +22°C° 0 mm 4 mps 767 mmHg 27%
    13:00 +23°C° 0 mm 4 mps 767 mmHg 25%
    14:00 +25°C° 0 mm 4 mps 766 mmHg 23%
    15:00 +25°C° 0 mm 4 mps 766 mmHg 24%
    16:00 +23°C° 0 mm 5 mps 766 mmHg 24%
    17:00 +23°C° 0 mm 5 mps 765 mmHg 25%
    18:00 +21°C° 0 mm 5 mps 765 mmHg 31%
    19:00 +20°C° 0 mm 5 mps 765 mmHg 37%
    20:00 +17°C° 0 mm 5 mps 765 mmHg 43%
    21:00 +17°C° 0 mm 5 mps 765 mmHg 47%
    22:00 +16°C° 0 mm 6 mps 765 mmHg 51%
    23:00 +16°C° 0 mm 6 mps 765 mmHg 55%

    Tomorrow, 18 January, Friday

    Time Temperature Precipitation Wind Pressure Humidity
    00:00 +15°C° 0 mm 6 mps 765 mmHg 57%
    01:00 +15°C° 0 mm 5 mps 765 mmHg 59%
    02:00 +15°C° 0 mm 5 mps 764 mmHg 62%
    03:00 +15°C° 0 mm 5 mps 764 mmHg 63%
    04:00 +14°C° 0 mm 5 mps 764 mmHg 65%
    05:00 +14°C° 0 mm 5 mps 764 mmHg 67%
    06:00 +16°C° 0 mm 5 mps 764 mmHg 59%
    07:00 +19°C° 0 mm 6 mps 764 mmHg 51%
    08:00 +20°C° 0 mm 6 mps 764 mmHg 43%
    09:00 +23°C° 0 mm 6 mps 764 mmHg 35%
    10:00 +27°C° 0 mm 6 mps 764 mmHg 27%
    11:00 +29°C° 0 mm 5 mps 763 mmHg 19%
    12:00 +30°C° 0 mm 5 mps 763 mmHg 17%
    13:00 +32°C° 0 mm 5 mps 762 mmHg 15%
    14:00 +34°C° 0 mm 4 mps 762 mmHg 13%
    15:00 +33°C° 0 mm 5 mps 761 mmHg 14%
    16:00 +33°C° 0 mm 5 mps 761 mmHg 15%
    17:00 +33°C° 0 mm 5 mps 760 mmHg 16%
    18:00 +29°C° 0 mm 6 mps 760 mmHg 19%
    19:00 +27°C° 0 mm 7 mps 760 mmHg 23%
    20:00 +24°C° 0 mm 8 mps 760 mmHg 26%
    21:00 +23°C° 0 mm 8 mps 760 mmHg 29%
    22:00 +22°C° 0 mm 7 mps 760 mmHg 33%
    23:00 +22°C° 0 mm 7 mps 761 mmHg 36%

    Day after tomorrow, 19 January, Saturday

    Time Temperature Precipitation Wind Pressure Humidity
    00:00 +22°C° 0 mm 7 mps 760 mmHg 38%
    01:00 +21°C° 0 mm 6 mps 760 mmHg 41%
    02:00 +21°C° 0 mm 6 mps 760 mmHg 43%
    03:00 +21°C° 0 mm 6 mps 760 mmHg 40%
    04:00 +21°C° 0 mm 6 mps 760 mmHg 36%
    05:00 +21°C° 0 mm 5 mps 759 mmHg 32%
    06:00 +23°C° 0 mm 6 mps 760 mmHg 28%
    07:00 +26°C° 0 mm 7 mps 760 mmHg 25%
    08:00 +28°C° 0 mm 8 mps 760 mmHg 22%
    09:00 +31°C° 0 mm 8 mps 760 mmHg 19%
    10:00 +32°C° 0 mm 7 mps 759 mmHg 16%
    11:00 +34°C° 0 mm 7 mps 759 mmHg 14%
    12:00 +35°C° 0 mm 8 mps 759 mmHg 13%
    13:00 +37°C° 0 mm 8 mps 758 mmHg 12%
    14:00 +37°C° 0 mm 8 mps 758 mmHg 12%
    15:00 +37°C° 0 mm 8 mps 757 mmHg 12%
    16:00 +37°C° 0 mm 8 mps 757 mmHg 13%
    17:00 +37°C° 0 mm 8 mps 756 mmHg 13%
    18:00 +34°C° 0 mm 8 mps 756 mmHg 19%
    19:00 +32°C° 0 mm 7 mps 756 mmHg 24%
    20:00 +29°C° 0 mm 7 mps 756 mmHg 30%
    21:00 +29°C° 0 mm 7 mps 756 mmHg 33%
    22:00 +28°C° 0 mm 7 mps 756 mmHg 36%
    23:00 +27°C° 0 mm 7 mps 755 mmHg 39%

    20 January, Sunday

    Time Temperature Precipitation Wind Pressure Humidity
    00:00 +28°C° 0 mm 8 mps 755 mmHg 39%
    01:00 +28°C° 0 mm 9 mps 754 mmHg 39%
    02:00 +28°C° 0 mm 10 mps 754 mmHg 39%
    03:00 +27°C° 0 mm 10 mps 754 mmHg 43%
    04:00 +27°C° 0 mm 10 mps 754 mmHg 47%
    05:00 +26°C° 0 mm 10 mps 754 mmHg 51%
    06:00 +27°C° 0 mm 10 mps 754 mmHg 49%
    07:00 +28°C° 0 mm 10 mps 754 mmHg 47%
    08:00 +29°C° 0 mm 10 mps 754 mmHg 45%
    09:00 +32°C° 0 mm 10 mps 754 mmHg 40%
    10:00 +33°C° 0 mm 10 mps 753 mmHg 35%
    11:00 +35°C° 0 mm 9 mps 753 mmHg 31%
    12:00 +37°C° 0 mm 9 mps 752 mmHg 28%
    13:00 +39°C° 0 mm 9 mps 751 mmHg 25%
    14:00 +40°C° 0 mm 9 mps 750 mmHg 23%
    15:00 +40°C° 0 mm 9 mps 750 mmHg 21%
    16:00 +42°C° 0 mm 9 mps 749 mmHg 20%
    17:00 +42°C° 0 mm 9 mps 748 mmHg 19%
    18:00 +39°C° 0.3 mm 8 mps 748 mmHg 22%
    19:00 +38°C° 0.3 mm 8 mps 748 mmHg 25%
    20:00 +37°C° 0.3 mm 8 mps 747 mmHg 27%
    21:00 +35°C° 0.2 mm 9 mps 748 mmHg 30%
    22:00 +34°C° 0.2 mm 10 mps 748 mmHg 34%
    23:00 +33°C° 0.2 mm 11 mps 748 mmHg 37%

    21 January, Monday

    Time Temperature Precipitation Wind Pressure Humidity
    00:00 +32°C° 0.3 mm 10 mps 748 mmHg 40%
    01:00 +31°C° 0.3 mm 8 mps 748 mmHg 43%
    02:00 +29°C° 0.3 mm 6 mps 749 mmHg 46%
    03:00 +27°C° 0 mm 7 mps 749 mmHg 51%
    04:00 +24°C° 0 mm 8 mps 749 mmHg 55%
    05:00 +23°C° 0 mm 9 mps 750 mmHg 60%
    06:00 +23°C° 0 mm 9 mps 751 mmHg 51%
    07:00 +24°C° 0 mm 9 mps 751 mmHg 42%
    08:00 +26°C° 0 mm 9 mps 752 mmHg 34%
    09:00 +27°C° 0 mm 8 mps 752 mmHg 31%
    10:00 +28°C° 0 mm 8 mps 753 mmHg 28%
    11:00 +29°C° 0 mm 7 mps 753 mmHg 25%
    12:00 +29°C° 0 mm 6 mps 753 mmHg 25%
    13:00 +29°C° 0 mm 6 mps 753 mmHg 24%
    14:00 +30°C° 0 mm 5 mps 752 mmHg 23%
    15:00 +30°C° 0 mm 4 mps 752 mmHg 22%
    16:00 +30°C° 0 mm 4 mps 751 mmHg 21%
    17:00 +30°C° 0 mm 3 mps 751 mmHg 20%
    18:00 +28°C° 0 mm 4 mps 751 mmHg 27%
    19:00 +26°C° 0 mm 6 mps 750 mmHg 34%
    20:00 +23°C° 0 mm 7 mps 750 mmHg 41%
    21:00 +22°C° 0 mm 8 mps 750 mmHg 42%
    22:00 +22°C° 0 mm 8 mps 749 mmHg 42%
    23:00 +22°C° 0 mm 8 mps 749 mmHg 43%

    22 January, Tuesday

    Time Temperature Precipitation Wind Pressure Humidity
    00:00 +22°C° 0 mm 8 mps 749 mmHg 45%
    01:00 +22°C° 0 mm 8 mps 748 mmHg 46%
    02:00 +22°C° 0 mm 8 mps 747 mmHg 48%
    03:00 +22°C° 0 mm 8 mps 747 mmHg 46%
    04:00 +22°C° 0 mm 7 mps 747 mmHg 43%
    05:00 +22°C° 0 mm 6 mps 747 mmHg 41%
    06:00 +23°C° 0 mm 7 mps 748 mmHg 40%
    07:00 +24°C° 0 mm 7 mps 748 mmHg 39%
    08:00 +26°C° 0 mm 7 mps 749 mmHg 38%
    09:00 +27°C° 0 mm 7 mps 749 mmHg 31%
    10:00 +27°C° 0 mm 8 mps 750 mmHg 25%
    11:00 +28°C° 0 mm 8 mps 750 mmHg 19%
    12:00 +28°C° 0 mm 7 mps 750 mmHg 18%
    13:00 +28°C° 0 mm 5 mps 750 mmHg 17%
    14:00 +29°C° 0 mm 4 mps 750 mmHg 16%
    15:00 +29°C° 0 mm 4 mps 750 mmHg 16%
    16:00 +29°C° 0 mm 4 mps 750 mmHg 16%
    17:00 +29°C° 0 mm 4 mps 750 mmHg 16%
    18:00 +27°C° 0 mm 5 mps 750 mmHg 24%
    19:00 +23°C° 0 mm 5 mps 751 mmHg 32%
    20:00 +21°C° 0 mm 6 mps 751 mmHg 40%
    21:00 +21°C° 0 mm 6 mps 752 mmHg 43%
    22:00 +20°C° 0 mm 6 mps 752 mmHg 46%
    23:00 +20°C° 0 mm 5 mps 753 mmHg 50%
    Show more